OK1VCF-8 Weather Reports


time (UTC)temp
F
wind
direction
speed
knots
gust
knots
rain 1hr
in
rain 24hr
in
rain mn
in
humidity
%
barometer
mb
20260508165643 60 0 0.0 0.0 0.00 0.00 0.00 60 1018.9
20260508164925 66 0 0.0 0.0 0.00 0.00 0.00 49 1018.9
20260508164208 67 0 0.0 0.0 0.00 0.00 0.00 48 1018.8
20260508163448 67 0 0.0 0.0 0.00 0.00 0.00 48 1018.8
20260508162728 64 0 0.0 0.0 0.00 0.00 0.00 53 1019.0
20260508162010 60 0 0.0 0.0 0.00 0.00 0.00 58 1019.0
20260508161252 62 0 0.0 0.0 0.00 0.00 0.00 54 1018.9
20260508160534 64 0 0.0 0.0 0.00 0.00 0.00 51 1019.0
20260508155812 62 0 0.0 0.0 0.00 0.00 0.00 53 1019.0
20260508155052 68 0 0.0 0.0 0.00 0.00 0.00 46 1019.0
20260508154335 68 0 0.0 0.0 0.00 0.00 0.00 46 1019.0
20260508152154 68 0 0.0 0.0 0.00 0.00 0.00 46 1018.8
20260508151433 64 0 0.0 0.0 0.00 0.00 0.00 49 1019.0
20260508150431 68 0 0.0 0.0 0.00 0.00 0.00 47 1019.1
20260508145711 66 0 0.0 0.0 0.00 0.00 0.00 49 1019.1
20260508144951 69 0 0.0 0.0 0.00 0.00 0.00 46 1019.2
20260508144233 68 0 0.0 0.0 0.00 0.00 0.00 47 1019.2
20260508143513 62 0 0.0 0.0 0.00 0.00 0.00 56 1019.2
20260508142753 64 0 0.0 0.0 0.00 0.00 0.00 54 1019.4
20260508142032 62 0 0.0 0.0 0.00 0.00 0.00 56 1019.3
20260508141312 62 0 0.0 0.0 0.00 0.00 0.00 54 1019.4
20260508140554 62 0 0.0 0.0 0.00 0.00 0.00 56 1019.4
20260508135834 60 0 0.0 0.0 0.00 0.00 0.00 56 1019.4
20260508135114 62 0 0.0 0.0 0.00 0.00 0.00 56 1019.4
20260508134356 62 0 0.0 0.0 0.00 0.00 0.00 56 1019.4
20260508133636 60 0 0.0 0.0 0.00 0.00 0.00 59 1019.3
20260508132916 59 0 0.0 0.0 0.00 0.00 0.00 60 1019.4
20260508132158 60 0 0.0 0.0 0.00 0.00 0.00 58 1020.0
20260508131153 60 0 0.0 0.0 0.00 0.00 0.00 56 1019.5
20260508130433 60 0 0.0 0.0 0.00 0.00 0.00 56 1019.6
20260508125650 60 0 0.0 0.0 0.00 0.00 0.00 57 1019.5
20260508124855 62 0 0.0 0.0 0.00 0.00 0.00 56 1019.5
20260508124044 62 0 0.0 0.0 0.00 0.00 0.00 56 1019.4
20260508123223 62 0 0.0 0.0 0.00 0.00 0.00 56 1019.4
20260508122408 60 0 0.0 0.0 0.00 0.00 0.00 56 1019.4
20260508121544 60 0 0.0 0.0 0.00 0.00 0.00 56 1019.4
20260508120724 62 0 0.0 0.0 0.00 0.00 0.00 56 1019.4
20260508114347 60 0 0.0 0.0 0.00 0.00 0.00 58 1019.5
20260508113549 60 0 0.0 0.0 0.00 0.00 0.00 60 1019.5
20260508112811 60 0 0.0 0.0 0.00 0.00 0.00 60 1019.6
20260508112043 60 0 0.0 0.0 0.00 0.00 0.00 60 1019.6
20260508111035 60 0 0.0 0.0 0.00 0.00 0.00 59 1019.6
20260508110316 60 0 0.0 0.0 0.00 0.00 0.00 56 1019.6
20260508105557 60 0 0.0 0.0 0.00 0.00 0.00 59 1019.6
20260508104836 59 0 0.0 0.0 0.00 0.00 0.00 60 1019.6
20260508104115 60 0 0.0 0.0 0.00 0.00 0.00 60 1019.5
20260508103352 60 0 0.0 0.0 0.00 0.00 0.00 57 1019.5
20260508102632 60 0 0.0 0.0 0.00 0.00 0.00 58 1019.6
20260508100447 60 0 0.0 0.0 0.00 0.00 0.00 59 1019.8
20260508095726 58 0 0.0 0.0 0.00 0.00 0.00 62 1019.6
20260508095006 60 0 0.0 0.0 0.00 0.00 0.00 62 1019.7
20260508094246 58 0 0.0 0.0 0.00 0.00 0.00 63 1019.8
20260508093526 58 0 0.0 0.0 0.00 0.00 0.00 63 1019.8
20260508092807 58 0 0.0 0.0 0.00 0.00 0.00 64 1019.8
20260508091802 57 0 0.0 0.0 0.00 0.00 0.00 66 1019.8
20260508091043 56 0 0.0 0.0 0.00 0.00 0.00 68 1019.8
20260508090322 57 0 0.0 0.0 0.00 0.00 0.00 66 1019.8
20260508085602 58 0 0.0 0.0 0.00 0.00 0.00 63 1019.7
20260508084844 58 0 0.0 0.0 0.00 0.00 0.00 63 1019.8
20260508084124 58 0 0.0 0.0 0.00 0.00 0.00 62 1019.7
20260508083404 59 0 0.0 0.0 0.00 0.00 0.00 63 1019.8
20260508082643 58 0 0.0 0.0 0.00 0.00 0.00 65 1019.6
20260508081923 56 0 0.0 0.0 0.00 0.00 0.00 66 1019.6
20260508081202 57 0 0.0 0.0 0.00 0.00 0.00 66 1019.6
20260508080440 57 0 0.0 0.0 0.00 0.00 0.00 66 1019.6
20260508075718 56 0 0.0 0.0 0.00 0.00 0.00 68 1019.6
20260508074959 56 0 0.0 0.0 0.00 0.00 0.00 67 1019.6
20260508074239 56 0 0.0 0.0 0.00 0.00 0.00 68 1019.5
20260508073518 55 0 0.0 0.0 0.00 0.00 0.00 70 1019.5
20260508072513 55 0 0.0 0.0 0.00 0.00 0.00 70 1019.4
20260508071754 54 0 0.0 0.0 0.00 0.00 0.00 68 1019.4
20260508065540 54 0 0.0 0.0 0.00 0.00 0.00 71 1019.2
20260508064802 54 0 0.0 0.0 0.00 0.00 0.00 72 1019.2
20260508064025 53 0 0.0 0.0 0.00 0.00 0.00 72 1019.1
20260508063244 52 0 0.0 0.0 0.00 0.00 0.00 74 1019.0
20260508062504 52 0 0.0 0.0 0.00 0.00 0.00 75 1018.8
20260508061725 52 0 0.0 0.0 0.00 0.00 0.00 76 1019.0
20260508060945 51 0 0.0 0.0 0.00 0.00 0.00 76 1018.8
20260508060207 51 0 0.0 0.0 0.00 0.00 0.00 76 1018.7
20260508055432 51 0 0.0 0.0 0.00 0.00 0.00 77 1018.8
20260508054711 50 0 0.0 0.0 0.00 0.00 0.00 77 1018.7
20260508053951 51 0 0.0 0.0 0.00 0.00 0.00 76 1018.6
20260508052949 51 0 0.0 0.0 0.00 0.00 0.00 78 1018.6
20260508052232 50 0 0.0 0.0 0.00 0.00 0.00 79 1018.5
20260508051514 50 0 0.0 0.0 0.00 0.00 0.00 78 1018.4
20260508050756 50 0 0.0 0.0 0.00 0.00 0.00 79 1018.4
20260508050036 50 0 0.0 0.0 0.00 0.00 0.00 80 1018.4
20260508043845 48 0 0.0 0.0 0.00 0.00 0.00 83 1018.2
20260508043129 48 0 0.0 0.0 0.00 0.00 0.00 84 1018.2
20260508042412 48 0 0.0 0.0 0.00 0.00 0.00 84 1018.2
20260508041653 48 0 0.0 0.0 0.00 0.00 0.00 84 1018.0
20260508040935 49 0 0.0 0.0 0.00 0.00 0.00 84 1018.2
20260508040219 50 0 0.0 0.0 0.00 0.00 0.00 84 1018.0
20260508035501 48 0 0.0 0.0 0.00 0.00 0.00 86 1018.1
20260508034744 48 0 0.0 0.0 0.00 0.00 0.00 86 1018.0
20260508033742 48 0 0.0 0.0 0.00 0.00 0.00 86 1018.0
20260508033023 48 0 0.0 0.0 0.00 0.00 0.00 86 1018.0
20260508032306 48 0 0.0 0.0 0.00 0.00 0.00 86 1018.0
20260508031546 48 0 0.0 0.0 0.00 0.00 0.00 87 1018.0
20260508030829 48 0 0.0 0.0 0.00 0.00 0.00 86 1017.8
20260508030113 48 0 0.0 0.0 0.00 0.00 0.00 86 1017.8
20260508025353 48 0 0.0 0.0 0.00 0.00 0.00 86 1017.8
20260508024636 48 0 0.0 0.0 0.00 0.00 0.00 86 1017.8
20260508023919 48 0 0.0 0.0 0.00 0.00 0.00 86 1017.9
20260508023200 48 0 0.0 0.0 0.00 0.00 0.00 86 1017.8
20260508021018 48 0 0.0 0.0 0.00 0.00 0.00 88 1017.7
20260508020301 48 0 0.0 0.0 0.00 0.00 0.00 88 1017.8
20260508015543 48 0 0.0 0.0 0.00 0.00 0.00 88 1017.6
20260508014542 48 0 0.0 0.0 0.00 0.00 0.00 88 1017.6
20260508013826 48 0 0.0 0.0 0.00 0.00 0.00 88 1017.8
20260508013108 48 0 0.0 0.0 0.00 0.00 0.00 88 1017.7
20260508012351 48 0 0.0 0.0 0.00 0.00 0.00 90 1017.6
20260508011627 48 0 0.0 0.0 0.00 0.00 0.00 90 1017.6
20260508010848 48 0 0.0 0.0 0.00 0.00 0.00 90 1017.5
20260508010105 48 0 0.0 0.0 0.00 0.00 0.00 90 1017.4
20260508005241 48 0 0.0 0.0 0.00 0.00 0.00 89 1017.4
20260508004418 48 0 0.0 0.0 0.00 0.00 0.00 89 1017.4
20260508003551 48 0 0.0 0.0 0.00 0.00 0.00 88 1017.6
20260508002720 48 0 0.0 0.0 0.00 0.00 0.00 87 1017.4
20260508001900 49 0 0.0 0.0 0.00 0.00 0.00 86 1017.6
20260508001040 49 0 0.0 0.0 0.00 0.00 0.00 86 1017.6
20260508000215 49 0 0.0 0.0 0.00 0.00 0.00 85 1017.5
20260507235355 50 0 0.0 0.0 0.00 0.00 0.00 86 1017.6
20260507234300 50 0 0.0 0.0 0.00 0.00 0.00 86 1017.6
20260507233519 50 0 0.0 0.0 0.00 0.00 0.00 86 1017.6
20260507232748 50 0 0.0 0.0 0.00 0.00 0.00 86 1017.6
20260507232022 50 0 0.0 0.0 0.00 0.00 0.00 86 1017.7
20260507231304 50 0 0.0 0.0 0.00 0.00 0.00 86 1017.6
20260507230547 50 0 0.0 0.0 0.00 0.00 0.00 85 1017.8
20260507225828 50 0 0.0 0.0 0.00 0.00 0.00 85 1017.6
20260507225111 50 0 0.0 0.0 0.00 0.00 0.00 86 1017.8
20260507224351 50 0 0.0 0.0 0.00 0.00 0.00 86 1017.7
20260507223634 49 0 0.0 0.0 0.00 0.00 0.00 87 1017.6
20260507222917 49 0 0.0 0.0 0.00 0.00 0.00 88 1017.5
20260507222159 48 0 0.0 0.0 0.00 0.00 0.00 90 1017.4
20260507221442 48 0 0.0 0.0 0.00 0.00 0.00 90 1017.6
20260507220723 48 0 0.0 0.0 0.00 0.00 0.00 90 1017.6
20260507220006 48 0 0.0 0.0 0.00 0.00 0.00 91 1017.6
20260507215003 48 0 0.0 0.0 0.00 0.00 0.00 92 1017.5
20260507214245 48 0 0.0 0.0 0.00 0.00 0.00 92 1017.4
20260507213528 48 0 0.0 0.0 0.00 0.00 0.00 92 1017.4
20260507212812 48 0 0.0 0.0 0.00 0.00 0.00 92 1017.3
20260507212055 48 0 0.0 0.0 0.00 0.00 0.00 92 1017.1
20260507211335 48 0 0.0 0.0 0.00 0.00 0.00 92 1017.0
20260507210617 48 0 0.0 0.0 0.00 0.00 0.00 92 1017.0
20260507205859 49 0 0.0 0.0 0.00 0.00 0.00 92 1017.0
20260507205141 49 0 0.0 0.0 0.00 0.00 0.00 92 1016.9
20260507204423 49 0 0.0 0.0 0.00 0.00 0.00 92 1016.9
20260507203705 50 0 0.0 0.0 0.00 0.00 0.00 92 1016.8
20260507202947 50 0 0.0 0.0 0.00 0.00 0.00 92 1016.7
20260507202228 50 0 0.0 0.0 0.00 0.00 0.00 92 1016.8
20260507201508 50 0 0.0 0.0 0.00 0.00 0.00 92 1016.6
20260507200750 50 0 0.0 0.0 0.00 0.00 0.00 92 1016.5
20260507195747 51 0 0.0 0.0 0.00 0.00 0.00 91 1016.4
20260507193602 53 0 0.0 0.0 0.00 0.00 0.00 86 1016.0
20260507192844 53 0 0.0 0.0 0.00 0.00 0.00 86 1016.0
20260507192126 54 0 0.0 0.0 0.00 0.00 0.00 86 1015.9
20260507191407 54 0 0.0 0.0 0.00 0.00 0.00 84 1015.8
20260507190649 54 0 0.0 0.0 0.00 0.00 0.00 84 1015.6
20260507185928 54 0 0.0 0.0 0.00 0.00 0.00 82 1015.5
20260507185208 54 0 0.0 0.0 0.00 0.00 0.00 82 1015.2
20260507184448 54 0 0.0 0.0 0.00 0.00 0.00 80 1015.2
20260507183728 55 0 0.0 0.0 0.00 0.00 0.00 79 1015.2
20260507181543 55 0 0.0 0.0 0.00 0.00 0.00 76 1014.9
20260507180540 55 0 0.0 0.0 0.00 0.00 0.00 76 1014.8
20260507175820 56 0 0.0 0.0 0.00 0.00 0.00 74 1014.8
20260507175103 56 0 0.0 0.0 0.00 0.00 0.00 74 1014.8
20260507174345 56 0 0.0 0.0 0.00 0.00 0.00 72 1014.6
20260507173626 56 0 0.0 0.0 0.00 0.00 0.00 70 1014.4
20260507172906 57 0 0.0 0.0 0.00 0.00 0.00 70 1014.4
20260507172147 58 0 0.0 0.0 0.00 0.00 0.00 70 1014.4
20260507171426 58 0 0.0 0.0 0.00 0.00 0.00 69 1014.4
20260507170709 59 0 0.0 0.0 0.00 0.00 0.00 66 1014.2